CAPE
623 307 123 85 86 113 167 202 265 318 313 223 189 240 274 138 98 55 0 0 0 0 0 0 0 0 0 0 0 0 0 0 0 0 0 0 0 0 0 0 0 0 0
951 741 342 181 174 260 244 266 396 460 330 231 209 182 247 133 89 1 0 0 0 0 0 0 0 0 0 0 0 0 0 0 0 0 0 0 0 0 0 0 0 0 0
1268 1147 801 635 471 481 503 377 468 445 355 336 429 263 69 5 0 0 0 0 0 0 0 0 0 0 0 0 0 0 0 0 0 0 0 0 0 0 0 0 0 0 0
1482 1522 1221 1207 1084 929 898 538 468 403 452 588 328 81 72 84 18 0 0 0 0 0 0 0 0 0 0 0 0 0 0 0 0 0 0 0 0 0 0 0 0 0 0
1623 1749 1661 1527 1361 1125 955 825 412 270 494 611 264 292 649 349 99 0 0 0 0 0 0 0 0 0 0 0 0 0 0 0 0 0 0 0 0 0 0 0 0 0 0
1728 1834 1837 1753 1628 1304 1616 1222 865 547 753 402 355 504 687 342 0 0 0 0 0 0 0 0 0 0 0 0 0 0 0 0 0 0 0 0 0 0 0 0 0 0 0
1469 1771 1755 1595 1762 1590 1204 774 970 680 725 429 548 572 824 185 12 0 0 0 0 0 0 0 0 0 0 0 0 0 0 0 0 0 0 0 0 0 0 0 0 0 0
635 1113 1370 1477 1535 1675 1228 462 410 731 636 331 350 354 508 191 46 10 2 3 0 0 0 0 0 0 0 0 0 0 0 0 0 0 0 0 0 0 0 0 0 0 0
0 127 723 1014 1161 1264 855 647 255 265 131 59 65 40 32 7 8 1 1 3 0 0 0 0 0 0 0 0 0 0 0 0 0 0 0 0 0 0 0 0 0 0 0
0 0 0 71 870 864 884 610 487 195 109 12 3 5 5 7 4 5 1 0 0 0 0 0 0 0 0 0 0 0 0 0 0 0 0 0 0 0 0 0 0 0 0
0 0 71 101 37 627 577 338 133 145 43 8 5 4 5 2 2 4 2 0 0 0 0 0 0 0 0 0 0 0 0 0 0 0 0 0 0 0 0 0 0 0 0
0 0 0 0 3 153 233 190 124 65 2 3 2 3 2 1 2 0 0 0 0 0 0 0 0 0 0 0 0 0 0 0 0 0 0 0 0 0 0 0 0 0 0
0 0 0 0 0 0 2 14 10 3 2 0 3 3 2 1 0 0 1 0 0 0 0 0 0 0 0 0 0 0 0 0 0 0 0 0 0 0 0 0 0 0 0
0 0 0 0 0 0 0 1 10 9 2 1 1 1 1 1 1 1 0 1 0 0 0 0 0 0 0 0 0 0 0 0 0 0 0 0 0 0 0 0 0 0 0
0 0 0 0 0 0 0 0 0 8 6 3 2 1 1 2 1 5 0 0 0 0 0 0 0 0 0 0 0 0 0 0 0 0 0 0 0 0 0 0 0 0 0
0 0 0 0 0 0 0 0 0 0 7 13 3 1 1 3 4 1 3 3 2 0 0 0 0 0 0 0 0 0 0 0 0 0 0 0 0 0 0 0 0 0 0
0 0 0 0 0 0 0 0 0 0 0 7 6 1 1 1 2 1 0 0 2 0 0 0 0 0 0 0 0 0 0 0 0 0 0 0 0 0 0 0 0 0 0
0 0 0 0 0 0 0 0 0 0 0 2 2 1 3 0 0 0 1 0 0 0 0 0 0 0 0 0 0 0 0 0 0 0 0 0 0 0 0 0 0 0 0
0 0 0 0 0 0 0 0 0 3 2 4 6 3 3 2 1 2 0 0 0 0 0 0 0 0 0 0 0 0 0 0 0 0 0 0 0 0 0 0 0 0 0
0 0 0 0 0 0 0 0 0 0 0 4 10 6 4 10 1 0 0 0 0 0 0 0 0 0 0 0 0 0 0 0 0 0 0 0 0 0 0 0 0 0 0
0 0 0 0 0 0 0 0 0 0 0 0 1 8 9 9 2 0 0 0 0 0 0 0 0 0 0 0 0 0 0 0 0 0 0 0 0 0 0 0 0 0 0
0 0 0 0 0 0 0 0 0 0 0 0 0 1 5 7 5 0 0 0 0 0 0 0 0 0 2 0 0 0 0 0 0 0 0 0 0 0 0 0 0 0 0
0 0 0 0 0 0 0 0 0 0 0 0 0 1 3 5 8 2 1 1 4 0 0 0 0 0 1 3 0 0 0 0 0 0 0 0 0 0 0 0 0 0 0
0 0 0 0 0 0 0 0 0 0 0 0 1 5 13 9 8 5 5 3 3 3 0 0 0 0 0 3 1 0 0 0 0 0 0 0 0 0 0 0 0 0 0
0 0 0 0 0 0 0 0 0 0 0 0 3 11 0 3 9 9 10 6 5 0 0 0 0 0 7 3 1 0 0 1 0 0 0 0 0 0 0 0 0 0 0
0 0 0 0 0 0 0 0 0 0 0 0 0 3 15 13 0 0 0 0 0 0 0 0 0 1 0 0 0 0 0 0 0 0 0 0 0 0 0 0 0 0 0
CIN
-137 -155 -266 -323 -298 -276 -259 -219 -171 -154 -114 -151 -170 -111 -84 -145 -182 -193 0 0 0 0 0 0 0 0 0 0 0 0 0 0 0 0 0 0 0 0 0 0 0 0 0
-79 -92 -181 -246 -249 -213 -220 -187 -131 -118 -139 -148 -133 -137 -95 -186 -200 -84 0 0 0 0 0 0 0 0 0 0 0 0 0 0 0 0 0 0 0 0 0 0 0 0 0
-67 -80 -125 -163 -168 -148 -125 -186 -140 -145 -149 -123 -56 -129 -280 -181 0 0 0 0 0 0 0 0 0 0 0 0 0 0 0 0 0 0 0 0 0 0 0 0 0 0 0
-28 -42 -77 -49 -88 -100 -52 -124 -88 -134 -150 -87 -154 -265 -279 -245 -273 0 0 0 0 0 0 0 0 0 0 0 0 0 0 0 0 0 0 0 0 0 0 0 0 0 0
-52 -55 -67 -49 -50 -52 -83 -69 -106 -175 -189 -95 -216 -134 -11 -30 -195 0 0 0 0 0 0 0 0 0 0 0 0 0 0 0 0 0 0 0 0 0 0 0 0 0 0
-18 -20 -14 -11 -23 -53 -53 -86 -68 -190 -91 -241 -205 -51 -9 -31 0 0 0 0 0 0 0 0 0 0 0 0 0 0 0 0 0 0 0 0 0 0 0 0 0 0 0
-4 -2 -2 -11 0 -18 -73 -137 -56 -173 -100 -119 -80 -55 -2 -90 -305 0 0 0 0 0 0 0 0 0 0 0 0 0 0 0 0 0 0 0 0 0 0 0 0 0 0
-57 -15 -3 -9 0 0 -25 -224 -193 -99 -79 -103 -107 -79 -41 -113 -212 -126 0 0 0 0 0 0 0 0 0 0 0 0 0 0 0 0 0 0 0 0 0 0 0 0 0
0 -243 -84 -44 -47 -65 -151 -151 -189 -171 -200 -255 -225 -197 -224 0 0 0 0 0 0 0 0 0 0 0 0 0 0 0 0 0 0 0 0 0 0 0 0 0 0 0 0
0 0 0 -193 -85 -89 -92 -160 -126 -194 -254 -377 0 0 0 0 0 0 0 0 0 0 0 0 0 0 0 0 0 0 0 0 0 0 0 0 0 0 0 0 0 0 0
0 0 -292 -375 -191 -109 -164 -244 -347 -278 -374 0 0 0 0 0 0 0 0 0 0 0 0 0 0 0 0 0 0 0 0 0 0 0 0 0 0 0 0 0 0 0 0
0 0 0 0 -25 -343 -299 -341 -371 -369 -7 0 0 0 0 0 0 0 0 0 0 0 0 0 0 0 0 0 0 0 0 0 0 0 0 0 0 0 0 0 0 0 0
0 0 0 0 0 0 0 -358 0 0 0 0 0 0 0 0 0 0 0 0 0 0 0 0 0 0 0 0 0 0 0 0 0 0 0 0 0 0 0 0 0 0 0
0 0 0 0 0 0 0 0 0 0 0 0 0 0 0 0 0 0 0 0 0 0 0 0 0 0 0 0 0 0 0 0 0 0 0 0 0 0 0 0 0 0 0
0 0 0 0 0 0 0 0 0 0 0 0 0 0 0 0 0 0 0 0 0 0 0 0 0 0 0 0 0 0 0 0 0 0 0 0 0 0 0 0 0 0 0
0 0 0 0 0 0 0 0 0 0 0 0 0 0 0 0 0 0 0 0 0 0 0 0 0 0 0 0 0 0 0 0 0 0 0 0 0 0 0 0 0 0 0
0 0 0 0 0 0 0 0 0 0 0 0 0 0 0 0 0 0 0 0 0 0 0 0 0 0 0 0 0 0 0 0 0 0 0 0 0 0 0 0 0 0 0
0 0 0 0 0 0 0 0 0 0 0 0 0 0 0 0 0 0 0 0 0 0 0 0 0 0 0 0 0 0 0 0 0 0 0 0 0 0 0 0 0 0 0
0 0 0 0 0 0 0 0 0 0 0 0 0 0 0 0 0 0 0 0 0 0 0 0 0 0 0 0 0 0 0 0 0 0 0 0 0 0 0 0 0 0 0
0 0 0 0 0 0 0 0 0 0 0 0 0 0 0 0 0 0 0 0 0 0 0 0 0 0 0 0 0 0 0 0 0 0 0 0 0 0 0 0 0 0 0
0 0 0 0 0 0 0 0 0 0 0 0 0 0 0 0 0 0 0 0 0 0 0 0 0 0 0 0 0 0 0 0 0 0 0 0 0 0 0 0 0 0 0
0 0 0 0 0 0 0 0 0 0 0 0 0 0 0 0 0 0 0 0 0 0 0 0 0 0 0 0 0 0 0 0 0 0 0 0 0 0 0 0 0 0 0
0 0 0 0 0 0 0 0 0 0 0 0 0 0 0 0 0 0 0 0 0 0 0 0 0 0 0 0 0 0 0 0 0 0 0 0 0 0 0 0 0 0 0
0 0 0 0 0 0 0 0 0 0 0 0 0 0 0 0 0 0 0 0 0 0 0 0 0 0 0 0 0 0 0 0 0 0 0 0 0 0 0 0 0 0 0
0 0 0 0 0 0 0 0 0 0 0 0 0 0 -6 -1 0 0 0 0 0 0 0 0 0 0 0 0 0 0 0 0 0 0 0 0 0 0 0 0 0 0 0
0 0 0 0 0 0 0 0 0 0 0 0 0 -1 0 0 0 -1 0 0 0 0 0 0 0 0 0 0 0 0 0 0 0 0 0 0 0 0 0 0 0 0 0
Wind_Speed
20 20 20 19 19 18 18 19 18 17 13 11 11 10 9 8 7 6 7 7 6 7 6 5 6 4 5 5 8 8 10 9 9 9 9 7 6 6 5 5 5 6 7
18 20 19 20 20 20 19 20 20 20 15 12 10 8 8 7 7 6 7 7 8 8 7 6 6 7 5 7 8 10 8 8 10 4 6 6 5 5 4 4 5 6 5
20 21 22 22 20 19 21 21 21 22 19 17 11 8 8 6 6 7 7 8 9 8 7 8 6 7 7 7 9 10 10 8 8 7 4 4 3 7 5 5 5 4 4
20 20 20 21 22 19 17 18 19 20 18 18 14 15 12 11 8 9 8 8 9 8 7 6 6 7 5 6 8 8 7 6 9 7 4 3 7 5 6 5 5 5 5
22 22 22 21 18 17 19 16 16 16 16 17 16 13 13 9 8 8 11 9 8 8 8 7 6 6 5 6 7 8 8 7 7 8 5 4 3 2 3 6 6 5 4
18 18 18 19 20 17 17 17 19 18 16 17 17 17 16 12 10 12 11 8 7 7 7 7 6 6 5 6 6 8 9 7 6 6 6 5 4 5 4 4 8 6 6
13 14 16 17 17 17 14 14 17 19 18 16 17 17 15 15 15 14 11 11 7 6 7 8 7 6 6 6 6 7 7 7 7 7 5 4 3 3 3 5 7 5 5
3 11 14 16 18 19 15 14 13 12 12 14 14 14 15 8 9 10 9 7 8 8 9 7 7 8 8 7 6 5 5 6 6 6 4 3 3 4 5 5 8 7 5
7 5 4 11 13 15 12 14 16 14 13 13 11 11 10 12 9 9 9 7 7 8 8 9 8 9 9 9 8 6 7 8 7 7 6 5 5 4 4 5 7 5 6
11 9 2 7 9 11 13 12 12 17 15 16 12 11 12 11 10 9 11 10 8 9 11 10 9 10 9 9 9 8 9 9 8 7 9 7 6 6 5 4 3 3 2
13 12 12 7 8 7 6 9 11 11 10 12 11 12 11 10 10 8 10 9 10 8 12 11 10 11 10 10 9 9 11 11 9 10 9 9 8 6 6 5 5 4 3
14 14 14 14 16 10 3 4 8 10 9 10 12 12 11 12 11 10 11 11 10 9 12 12 12 11 11 10 10 11 11 12 11 10 10 10 7 8 7 6 7 6 4
16 16 16 15 13 12 10 4 3 5 7 9 10 11 12 13 13 13 13 13 12 10 11 13 12 12 12 11 11 10 11 11 11 10 10 9 9 8 7 7 7 6 5
15 15 15 14 13 11 10 7 2 4 7 8 8 9 10 11 13 12 15 12 12 12 12 12 12 12 13 12 11 11 10 10 10 9 9 8 7 8 8 7 7 6 6
14 15 14 13 13 12 10 8 5 0 5 7 8 9 9 10 11 15 13 19 11 10 13 13 12 14 13 11 14 14 12 11 11 9 9 8 8 11 8 5 7 6 5
13 13 13 14 14 14 13 10 6 4 5 6 8 7 8 9 10 11 12 14 12 16 14 14 15 14 11 15 12 14 13 13 12 11 10 10 10 8 9 11 14 11 4
12 14 14 13 13 15 15 13 8 5 5 6 6 7 8 8 9 10 12 13 14 14 15 14 14 14 12 13 11 11 13 13 12 12 11 10 8 9 9 8 8 9 9
10 11 11 12 14 15 16 14 11 3 2 3 5 6 7 7 8 9 10 11 11 15 15 14 14 14 11 15 12 8 11 10 11 11 11 10 11 10 10 9 7 7 6
8 9 10 11 12 14 15 14 13 9 5 3 2 5 8 9 9 11 11 11 10 12 12 12 13 15 14 19 18 16 13 11 12 10 10 10 12 11 7 9 8 6 5
8 8 9 9 11 12 13 12 11 9 9 10 7 2 6 10 10 11 11 10 9 10 11 14 15 13 15 21 22 18 10 12 10 11 11 3 9 15 11 9 8 8 7
6 8 7 7 9 10 10 10 10 12 11 9 6 6 5 8 10 9 7 10 12 9 10 11 10 14 14 18 24 21 13 11 11 10 10 10 11 14 12 9 8 4 9
7 7 7 7 7 8 8 10 10 11 11 11 8 6 6 5 7 9 9 10 10 11 11 11 9 9 13 15 18 20 10 11 11 11 9 9 15 13 11 8 9 8 3
9 8 8 9 8 7 8 8 8 10 11 11 10 8 6 6 8 10 9 8 13 8 9 9 10 10 12 12 18 21 13 10 9 8 9 16 16 13 9 8 10 7 6
11 11 11 10 9 9 8 8 8 8 9 11 12 8 7 6 7 7 9 8 8 9 8 8 9 11 12 12 13 14 13 10 9 9 10 12 12 9 6 9 8 8 7
11 12 12 12 12 11 11 9 8 7 8 8 8 8 5 5 8 7 7 8 12 11 10 10 9 10 13 15 17 18 15 13 12 11 10 11 11 10 9 9 9 8 7
12 12 13 14 14 13 12 12 11 9 9 8 6 5 6 4 4 5 5 7 7 9 13 8 10 11 10 15 21 22 18 17 16 12 11 11 11 12 12 11 10 9 9
Wind_Direction
195 191 187 190 183 178 185 185 180 176 179 177 179 177 177 176 176 176 161 165 154 163 173 160 161 185 177 162 159 151 150 142 137 130 116 106 96 84 87 81 83 88 77
194 189 188 191 188 179 188 188 185 179 182 185 181 186 183 186 178 160 167 169 170 173 175 172 170 177 158 160 167 166 156 156 176 164 145 151 143 115 84 97 92 65 77
191 188 191 192 188 186 189 193 189 185 187 182 183 173 160 160 178 172 170 171 177 177 179 174 170 166 177 178 175 176 172 167 182 219 293 170 174 148 142 126 100 102 86
193 192 198 198 192 189 190 195 197 196 187 185 177 184 185 183 188 181 172 166 176 174 170 173 170 172 177 177 184 186 189 191 185 188 228 312 93 198 158 150 139 140 121
195 195 193 200 191 188 191 195 194 202 182 189 188 192 205 192 172 174 165 172 170 173 167 170 171 167 179 170 181 180 203 196 192 198 183 177 169 164 166 155 163 164 141
204 203 193 193 191 192 189 193 199 193 203 184 195 200 201 189 178 177 176 173 169 169 168 157 163 162 154 170 182 188 189 199 202 194 193 197 204 181 190 148 159 168 159
203 201 195 198 201 197 193 193 205 196 201 206 203 199 201 190 193 181 179 172 170 176 165 160 161 162 155 155 155 183 175 179 192 200 192 205 214 245 209 164 148 171 150
182 202 206 195 203 202 181 183 197 200 197 203 208 207 202 195 203 192 165 169 174 180 155 164 161 150 149 144 153 158 169 163 163 170 171 150 141 181 187 163 161 151 169
55 12 283 210 213 201 179 192 194 194 194 194 200 192 182 179 177 157 158 164 156 142 152 165 159 153 150 148 149 148 149 145 142 134 139 132 128 133 148 155 186 186 170
47 36 5 258 219 209 190 196 209 200 191 191 184 178 178 174 171 157 158 163 146 151 158 167 162 156 150 150 149 147 145 142 142 138 139 132 125 124 122 127 143 206 205
42 41 35 47 220 193 176 171 192 197 172 172 174 173 160 151 153 164 158 154 144 159 166 163 167 161 153 157 159 153 148 144 142 139 140 132 136 124 119 118 112 106 112
40 47 45 48 34 42 80 169 194 190 170 170 161 160 154 150 157 162 159 154 154 164 173 162 168 161 160 162 163 161 153 149 148 142 141 135 133 125 120 110 101 95 77
37 38 41 41 42 39 25 47 160 149 157 156 163 161 160 160 166 161 161 157 158 169 170 172 165 162 162 167 170 156 160 153 148 150 145 143 141 133 124 120 120 116 107
42 39 39 38 38 33 28 32 33 145 160 169 166 168 174 171 171 172 158 162 163 163 178 174 164 163 166 168 167 161 157 151 147 145 141 147 144 137 137 130 127 132 129
42 38 34 32 28 26 19 14 15 205 190 183 184 183 182 176 169 173 171 149 165 187 178 167 169 169 172 171 169 163 160 153 147 148 146 147 87 55 54 153 144 146 138
42 36 32 28 23 16 6 356 341 307 187 209 204 182 168 174 177 168 172 170 178 170 177 173 172 174 182 151 162 164 160 162 159 160 156 135 124 95 62 51 44 32 122
41 31 25 22 18 11 3 353 336 278 233 197 197 189 177 169 174 169 169 171 174 165 178 181 184 181 182 147 163 172 165 167 165 165 159 157 136 152 135 113 108 77 55
43 37 25 18 14 9 11 5 18 47 200 235 171 172 188 178 165 168 178 174 180 179 182 183 186 181 163 154 160 183 168 166 166 168 167 166 158 164 161 163 143 134 124
42 31 23 18 19 11 7 15 26 30 45 1 289 177 187 183 174 177 178 185 182 177 184 183 185 182 157 161 169 178 174 169 169 169 176 176 175 145 188 162 158 153 137
35 17 9 13 19 16 359 15 18 26 23 350 339 253 198 196 186 181 183 187 191 179 179 189 191 183 171 173 174 191 182 174 170 170 171 235 190 157 190 179 170 175 160
9 359 359 2 10 9 3 4 17 15 5 349 328 307 233 199 194 182 177 182 191 183 181 182 182 187 191 182 181 192 183 181 181 177 177 179 150 165 185 240 190 191 149
324 339 337 343 347 358 359 356 5 354 350 345 320 278 256 220 185 184 179 187 181 177 175 169 180 189 195 177 191 191 236 191 184 184 182 165 159 172 173 200 107 120 170
302 308 320 325 316 328 350 340 349 344 336 334 328 289 248 235 211 185 187 185 198 189 187 182 183 184 188 186 183 186 199 175 191 188 170 141 156 155 161 146 147 168 200
296 300 299 296 302 303 312 326 327 328 327 324 336 310 264 243 229 221 194 198 195 196 196 193 199 191 192 191 184 191 190 179 206 122 137 157 163 174 170 152 175 208 204
286 285 284 286 288 290 289 297 306 307 308 313 318 331 318 289 246 231 222 210 212 203 196 198 205 198 200 198 183 179 184 186 195 158 162 167 174 181 188 192 193 197 196
279 274 272 277 279 283 279 282 291 284 286 293 299 310 303 259 237 231 226 250 247 208 217 213 211 215 211 156 170 179 173 170 156 174 180 181 189 191 193 196 193 195 201